Weather History for Bryce Canyon, UT

Change the Weather History Date:

Monday, February 11, 2013

  Actual Average Record
Temperature  
Mean Temperature 7 °F -  
Max Temperature 23 °F 36 °F 52 °F (1970)
Min Temperature -9 °F 10 °F -11 °F (2009)
Degree Days  
Heating Degree Days 58    
Moisture  
Dew Point 4 °F    
Average Humidity 80    
Maximum Humidity 100    
Minimum Humidity 55    
Precipitation  
Precipitation 0.00 in - - ()
Sea Level Pressure  
Sea Level Pressure 30.03 in    
Wind  
Wind Speed 8 mph (WNW)    
Max Wind Speed 16 mph    
Max Gust Speed -    
Visibility 9 miles    
Events Snow    
Averages and records for this station are not official NWS values.
T = Trace of Precipitation, MM = Missing Value Source: NWS Daily Summary

Daily Weather History Graph

Daily Weather History Graph

Search for Another Location

Airport:

Trip Planner

Search our weather history database for the weather conditions in past years. The results will help you decide how hot, cold, wet, or windy it might be!

Date:

Astronomy

Feb. 11, 2013 Rise Set
Actual Time 7:22 AM MST 6:03 PM MST
Civil Twilight 6:55 AM MST 6:30 PM MST
Nautical Twilight 6:24 AM MST 7:01 PM MST
Astronomical Twilight 5:53 AM MST 7:32 PM MST
Moon 7:51 AM MST (2/11) 8:01 PM MST (2/11)
Length of Visible Light 11h 35m
Length of Day
10h 41m
Waxing Crescent, 3% of the Moon is Illuminated
Feb 11
Waxing Crescent
Feb 17
First Quarter
Feb 25
Full
Mar 4
Last Quarter
Mar 11
New

Hourly Weather History & Observations

Time (MST) Temp. Windchill Dew Point Humidity Pressure Visibility Wind Dir Wind Speed Gust Speed Precip Events Conditions
12:53 AM 8.1 °F -7.0 °F 5.0 °F 87% 29.96 in 10.0 mi WNW 11.5 mph - N/A   Clear
1:53 AM 6.1 °F -6.8 °F 3.0 °F 87% 29.99 in 10.0 mi WNW 8.1 mph - N/A   Clear
2:53 AM 7.0 °F -7.5 °F 3.9 °F 87% 29.99 in 10.0 mi WNW 10.4 mph - N/A   Clear
3:30 AM 6.8 °F -5.9 °F 3.2 °F 85% 29.89 in 10.0 mi WNW 8.1 mph - N/A   Mostly Cloudy
3:53 AM 5.0 °F -9.1 °F 3.0 °F 92% 30.00 in 10.0 mi WNW 9.2 mph - N/A   Scattered Clouds
4:53 AM 5.0 °F -10.0 °F 1.9 °F 87% 29.99 in 10.0 mi WNW 10.4 mph - N/A   Clear
5:45 AM -0.4 °F -15.7 °F -4.0 °F 85% 29.89 in 10.0 mi West 9.2 mph - N/A   Mostly Cloudy
5:53 AM 1.9 °F -12.9 °F -2.0 °F 83% 30.03 in 10.0 mi WNW 9.2 mph - N/A   Mostly Cloudy
6:33 AM -2.2 °F - -5.8 °F 85% 29.90 in 10.0 mi Calm Calm - N/A   Partly Cloudy
6:53 AM -7.1 °F - -9.9 °F 87% 30.11 in 10.0 mi Calm Calm - N/A   Clear
7:53 AM -9.9 °F - -11.0 °F 95% 30.21 in 10.0 mi Calm Calm - N/A   Partly Cloudy
8:53 AM -0.9 °F - -0.9 °F 100% 30.19 in 3.0 mi Calm Calm - N/A   Partly Cloudy
9:53 AM 10.9 °F 4.7 °F 7.0 °F 84% 30.13 in 10.0 mi North 3.5 mph - N/A   Clear
10:53 AM 15.1 °F 7.7 °F 9.0 °F 77% 30.08 in 10.0 mi NNW 4.6 mph - N/A   Clear
11:53 AM 18.0 °F 11.1 °F 9.0 °F 68% 30.13 in 10.0 mi NW 4.6 mph - N/A   Clear
12:53 PM 19.9 °F 13.4 °F 8.1 °F 60% 30.06 in 10.0 mi NW 4.6 mph - N/A   Clear
1:53 PM 21.9 °F - 8.1 °F 55% 30.05 in 10.0 mi Calm Calm - N/A   Scattered Clouds
2:46 PM 21.2 °F 10.1 °F 10.4 °F 63% 29.95 in 10.0 mi WSW 10.4 mph - N/A   Mostly Cloudy
2:53 PM 23.0 °F 13.1 °F 10.9 °F 60% 30.03 in 10.0 mi WNW 9.2 mph - N/A   Mostly Cloudy
3:53 PM 21.0 °F 8.6 °F 14.0 °F 74% 30.07 in 1.2 mi NW 12.7 mph - 0.00 in Snow Light Snow
4:04 PM 21.2 °F 8.9 °F 12.2 °F 68% 29.97 in 3.0 mi NW 12.7 mph - 0.00 in Snow Light Snow
4:33 PM 21.2 °F 7.3 °F 10.4 °F 63% 29.97 in 10.0 mi WNW 16.1 mph - 0.00 in   Scattered Clouds
4:53 PM 21.0 °F 8.6 °F 10.9 °F 65% 30.09 in 10.0 mi WNW 12.7 mph - 0.00 in   Mostly Cloudy
5:53 PM 15.1 °F -0.6 °F 9.0 °F 77% 30.15 in 10.0 mi WNW 16.1 mph - 0.00 in   Clear
6:53 PM 14.0 °F -0.2 °F 8.1 °F 77% - 10.0 mi WNW 12.7 mph - N/A   Clear
7:53 PM 9.0 °F -0.9 °F 3.9 °F 80% - 10.0 mi NW 5.8 mph - N/A   Clear
8:53 PM 10.0 °F -3.7 °F 6.1 °F 84% - 10.0 mi WNW 10.4 mph - N/A   Clear
9:53 PM 1.0 °F - -0.9 °F 91% - 10.0 mi Calm Calm - N/A   Clear
10:53 PM 1.0 °F -8.7 °F -0.9 °F 91% - 10.0 mi West 4.6 mph - N/A   Clear
11:53 PM -2.9 °F -11.2 °F -5.1 °F 90% - 9.0 mi WSW 3.5 mph - N/A   Clear